Weather in Karsy

Russia / Chelyabinsk Oblast     54°15′03″N   61°25′06″E
temp.,
°C
wind,
m/s
gust,
m/s
humid.,
%
clouds,
%
prec.,
mm/h
press.,
hPa
HPBL,
m
8 march, mon
mon823:00−15nw5119161 0.2 1009209
02:00−18wnw45892 0.0 101181
05:00−19w34861 0.0 101326
08:00−19ssw448733 0.0 101361
11:00−13ssw6118967 0.0 1011385
14:00−8ssw91487100 0.4 1010916
17:00−6ssw81584100 0.5 10081090
20:00−6sw81881100 0.0 1008687
9 march, tue
tue923:00−7sw7168497 0.0 1009527
02:00−6sw71686100 0.0 1009482
05:00−6ssw71586100 0.0 1008622
08:00−6ssw91785100 0.0 1006719
11:00−4sw9168291 0.0 1007911
14:00−3wsw7126878 0.1 10091197
17:00−4w348389 0.1 1011100
20:00−8sw2382100 0.0 101221
10 march, wed
wed1023:00−9s2384100 0.0 101321
02:00−10se3388100 0.0 101034
05:00−9se4796100 0.1 1008195
08:00−8se5895100 0.7 1004304
11:00−5se5896100 1.6 1001372
14:00−3s5896100 1.1 999571
17:00−5wsw81279100 2.0 998592
20:00−11sw512830 0.0 999253
11 march, thu
thu1123:00−16sw613830 0.0 1000353
02:00−16sw6119466 0.1 1000286
05:00−16w359683 0.2 1002143
08:00−16n81494100 0.3 1004617
11:00−15nnw71192100 0.6 1006689
14:00−13nnw71191100 0.4 1008766
17:00−11nw5983100 0.6 10101016
20:00−17wnw468646 0.0 101392
12 march, fri
fri1223:00−17nw5128469 0.0 1016478
02:00−21wnw488578 0.0 1017126
05:00−19w369687 0.1 1017189
08:00−16w41187100 0.1 1019374
11:00−13nw478289 0.1 1021607
14:00−10wnw577878 0.0 10221016
17:00−10wnw268689 0.1 1023258
20:00−14w348380 0.0 102534